Vorticity
nan nan nan nan nan nan nan nan nan nan nan nan nan nan nan nan nan nan nan nan nan nan nan nan nan nan nan nan nan nan nan nan nan nan nan nan nan nan nan nan nan nan nan
nan 11 11 12 10 7 7 9 10 7 6 8 9 9 10 9 8 6 3 4 6 6 7 5 6 7 8 8 8 9 10 10 8 7 8 9 9 10 9 9 11 10 nan
nan 10 10 9 8 9 8 8 8 9 10 10 9 10 10 7 7 6 7 7 7 6 6 6 7 7 7 8 9 8 8 10 9 9 10 10 9 10 10 10 10 14 nan
nan 10 7 8 8 9 9 8 7 9 10 8 8 8 6 7 7 7 8 6 6 6 6 7 7 11 8 6 9 11 8 7 11 9 8 10 9 9 10 11 10 10 nan
nan 10 10 10 10 9 9 9 9 6 6 7 8 7 7 9 10 9 6 6 6 8 8 9 8 7 13 9 4 6 9 8 7 9 9 9 8 8 10 12 10 8 nan
nan 9 10 10 10 9 9 9 8 7 7 7 7 8 8 8 10 8 8 7 8 9 9 8 14 12 12 13 8 4 3 4 4 7 9 10 9 9 10 10 10 10 nan
nan 10 9 9 9 8 8 7 7 8 8 8 9 9 9 11 12 9 9 6 9 9 8 8 8 9 9 10 15 16 15 13 5 4 8 8 10 10 11 11 10 8 nan
nan 8 8 7 7 7 7 7 8 9 9 8 10 10 10 12 12 13 10 7 10 9 9 9 8 6 10 11 8 11 11 12 15 13 11 7 6 8 10 11 11 12 nan
nan 8 7 7 7 7 7 8 8 8 9 10 9 10 10 10 11 13 9 9 10 10 11 11 13 10 11 7 5 8 11 13 18 15 7 9 12 11 9 11 13 10 nan
nan 8 8 8 8 8 9 9 8 9 9 9 8 10 11 10 11 14 10 5 9 9 14 20 13 7 5 5 5 8 9 8 7 11 14 17 15 19 19 11 11 8 nan
nan 10 9 9 8 9 8 9 9 9 9 10 10 11 12 12 12 16 9 2 7 8 10 12 20 22 5 6 6 4 8 8 12 11 10 12 11 12 15 13 13 12 nan
nan 9 9 8 7 9 9 8 10 9 10 10 11 12 16 16 12 13 11 6 2 9 8 9 24 20 6 5 5 4 6 9 10 10 10 10 10 10 9 11 14 14 nan
nan 8 8 8 8 8 8 9 12 13 10 9 10 11 13 13 19 16 11 13 6 7 6 5 15 12 6 11 11 8 6 6 8 8 9 9 10 10 11 12 10 14 nan
nan 9 10 10 11 9 9 12 9 10 11 11 10 8 9 11 11 12 18 18 12 7 10 9 6 2 3 7 20 20 6 5 7 8 8 8 9 9 11 11 11 11 nan
nan 10 13 15 11 10 9 8 10 8 6 7 7 7 9 8 6 8 8 7 10 8 14 16 13 13 11 12 10 8 9 10 8 7 7 8 8 8 8 9 11 10 nan
nan 11 9 10 12 11 10 17 16 7 6 9 6 3 6 6 6 7 10 16 12 12 8 12 10 10 10 11 10 10 10 10 10 9 7 7 8 8 8 8 9 10 nan
nan 7 11 11 10 10 10 9 12 22 19 9 12 11 8 3 5 7 8 17 17 12 5 9 10 11 12 11 11 11 10 10 9 9 8 8 8 8 7 7 9 8 nan
nan 9 8 10 10 11 10 10 9 8 11 18 23 16 12 13 9 6 14 9 14 9 6 8 10 13 12 11 11 11 11 12 11 9 8 8 7 8 8 8 7 8 nan
nan 8 9 10 10 9 10 11 11 10 9 9 12 20 21 16 13 14 11 2 6 6 10 13 17 15 10 10 11 12 13 12 9 11 14 10 8 9 8 7 9 10 nan
nan 12 6 7 10 11 12 11 11 11 11 10 9 9 14 17 14 14 8 8 9 11 13 14 15 16 15 16 16 14 14 14 15 16 14 11 10 11 9 8 7 9 nan
nan 14 12 10 11 10 9 10 11 11 11 11 11 12 15 11 9 11 11 11 11 14 15 14 13 12 15 15 14 13 12 12 14 18 17 15 15 16 14 10 9 9 nan
nan 9 9 10 11 12 10 9 11 12 13 14 16 26 17 5 10 11 11 12 13 11 12 12 10 10 11 9 10 12 10 9 11 12 12 10 12 12 15 13 13 10 nan
nan 8 9 11 11 12 11 8 10 13 14 12 12 11 10 12 20 16 10 10 14 11 8 9 8 12 15 12 11 12 13 13 12 11 10 11 11 10 10 11 11 10 nan
nan 9 10 10 10 10 12 11 10 14 15 13 11 8 14 11 7 13 15 12 10 13 11 12 14 8 8 15 16 16 14 10 12 10 11 16 13 10 9 12 10 11 nan
nan 11 12 12 12 12 12 14 14 14 12 12 13 15 8 14 10 8 12 17 16 12 9 11 14 15 10 9 9 11 14 12 10 15 16 12 12 14 13 12 7 9 nan
nan nan nan nan nan nan nan nan nan nan nan nan nan nan nan nan nan nan nan nan nan nan nan nan nan nan nan nan nan nan nan nan nan nan nan nan nan nan nan nan nan nan nan
CAPE
0 1 2 3 4 5 7 11 13 13 18 6 0 0 0 0 0 0 0 0 0 0 0 0 0 0 0 0 0 0 0 0 0 0 0 0 0 0 0 0 0 0 0
3 5 15 10 5 6 8 4 5 10 23 25 3 2 0 0 0 0 0 0 0 0 0 0 0 0 4 0 0 0 1 9 6 4 1 0 2 0 0 0 0 0 0
24 11 12 6 5 7 7 10 8 5 0 0 0 0 0 0 0 0 0 0 0 0 0 0 0 0 0 1 0 0 2 3 8 6 1 0 0 0 1 1 0 1 0
14 8 4 4 6 7 4 0 0 0 0 0 0 0 0 0 0 0 0 0 0 0 0 0 1 3 8 3 0 0 1 7 13 14 4 1 6 13 12 3 0 0 0
11 16 7 13 5 1 0 0 0 0 0 0 0 0 0 0 0 6 0 1 0 0 14 28 22 7 0 0 0 0 5 7 8 9 8 14 13 20 32 25 25 13 8
17 2 5 8 7 2 0 0 0 0 0 0 0 0 0 0 0 0 0 1 20 50 65 41 32 58 17 0 0 0 0 5 16 23 15 26 31 25 35 42 30 26 17
28 6 6 6 3 3 2 2 6 6 5 5 20 20 13 14 6 0 14 21 103 153 167 127 57 2 0 0 0 0 2 5 15 21 34 24 49 54 57 30 16 23 27
0 0 0 0 5 14 16 14 14 20 29 43 47 75 129 134 48 29 16 117 232 342 397 351 317 224 0 0 0 0 0 3 12 4 9 14 31 37 46 33 25 21 16
0 0 4 11 18 31 37 49 117 119 102 86 90 124 197 257 111 82 20 206 238 384 518 589 532 421 0 0 0 0 0 0 0 0 0 0 1 5 16 29 19 18 17
1 3 5 8 26 38 57 130 160 137 65 99 127 207 193 360 203 120 9 260 191 245 419 564 406 315 0 0 0 0 0 0 0 0 6 28 25 29 9 23 31 34 10
4 10 52 68 105 129 149 162 189 191 239 276 259 283 312 368 528 231 1 345 318 229 305 375 397 18 0 0 0 0 0 0 0 0 0 0 4 9 22 27 33 44 15
8 43 71 140 130 50 181 179 245 309 354 312 352 357 90 663 149 273 154 33 149 421 552 503 558 0 0 0 0 0 0 0 0 0 1 2 2 2 0 20 49 60 28
136 157 145 181 175 164 238 169 183 337 259 76 50 54 62 59 164 118 137 10 1 48 344 303 9 0 0 0 0 0 0 0 0 0 0 3 3 4 8 21 19 52 53
253 287 281 267 237 132 31 31 62 55 48 48 57 52 67 85 82 123 253 383 51 29 62 187 86 15 6 0 0 4 0 0 0 0 0 0 5 11 10 10 8 12 18
36 8 3 12 26 19 18 21 24 31 26 49 54 59 58 69 118 48 50 169 189 90 0 116 247 375 402 291 163 79 43 21 6 0 0 1 5 14 9 9 16 17 14
0 2 2 1 1 5 12 11 0 0 0 0 0 5 34 4 0 1 0 0 0 0 0 59 203 310 365 358 258 132 93 50 28 10 0 1 10 16 17 11 22 25 29
28 2 11 0 4 5 2 3 4 0 0 0 0 0 0 2 0 0 0 0 0 0 0 38 183 303 354 355 297 176 125 103 472 32 17 3 10 19 29 30 26 26 24
79 0 11 5 8 6 9 8 13 23 41 82 16 0 0 0 0 0 0 0 6 9 0 100 207 292 368 388 326 258 196 153 120 89 38 13 2 7 19 28 34 33 29
14 17 19 18 12 6 21 28 25 45 120 221 321 175 104 0 0 0 0 1 149 235 234 230 306 468 494 489 485 464 766 265 201 185 132 69 25 38 12 17 32 6 6
7 0 0 0 5 25 40 82 145 233 326 382 376 383 279 130 191 198 134 232 260 264 318 358 435 470 545 660 668 550 494 331 415 279 178 107 86 62 46 24 6 16 44
1 6 0 1 24 113 206 255 286 334 421 465 455 315 16 202 204 201 188 195 162 115 96 190 94 191 189 228 294 146 122 152 181 305 193 97 58 64 38 13 2 5 4
3 15 45 98 93 64 69 84 110 169 244 276 316 280 23 215 270 214 122 104 79 13 2 16 16 53 69 23 27 54 59 37 19 14 7 4 0 0 0 3 0 0 5
15 29 82 62 52 46 109 165 158 319 331 249 148 105 202 84 49 82 20 60 88 32 1 2 32 80 11 3 15 6 41 48 24 12 15 18 7 1 0 0 0 0 0
38 69 56 41 51 88 119 192 255 110 190 129 41 82 6 6 18 65 125 87 82 1 67 79 72 72 10 11 26 0 0 0 1 11 27 18 7 6 2 2 0 0 0
87 125 157 147 124 148 174 126 181 193 76 39 13 5 16 42 126 183 182 134 71 96 84 75 21 8 32 15 0 0 0 0 0 0 0 20 17 9 6 22 26 47 12
178 274 325 242 236 230 287 316 286 137 41 19 46 93 129 229 206 132 166 117 99 105 118 102 65 18 5 4 0 0 0 0 0 0 0 0 23 29 31 22 27 58 49